Location: Lewisville
(33.0462°N, 96.9942°W)
Time: 05:12:43
(UTC-05:00)

ISS - Visible Passes

Search period start: 30 September 2022 00:00
Search period end: 10 October 2022 00:00
Orbit: 414 x 417 km, 51.6° (Epoch: 30 September)

Date Brightness Start Highest point End Pass type
(mag) Time Alt. Az. Time Alt. Az. Time Alt. Az.
30 Sep -1.2 20:33:36 10° N 20:34:16 11° NNE 20:34:16 11° NNE visible
01 Oct -0.9 21:19:46 10° NNW 21:20:23 14° NNW 21:20:23 14° NNW visible
02 Oct -2.3 20:31:15 10° NNW 20:33:41 24° NNE 20:33:41 24° NNE visible
03 Oct -1.7 19:42:57 10° N 19:45:04 16° NNE 19:47:04 10° ENE visible
03 Oct -1.1 21:18:43 10° WNW 21:19:58 20° WNW 21:19:58 20° WNW visible
04 Oct -3.9 20:29:47 10° NW 20:33:08 78° NE 20:33:27 68° E visible
05 Oct -3.1 19:41:02 10° NNW 19:44:12 38° NE 19:47:05 12° ESE visible
05 Oct -0.8 21:18:42 10° W 21:20:00 14° WSW 21:20:00 14° WSW visible
06 Oct -1.9 20:28:55 10° WNW 20:31:50 28° SW 20:33:49 16° S visible
07 Oct -3.2 19:39:40 10° NW 19:42:58 58° SW 19:46:15 10° SSE visible
09 Oct -0.8 19:39:11 10° W 19:41:25 17° SW 19:43:38 10° S visible
